Location: Unspecified
(48.5670°N, 0.0000°E)
Time: 04:36:49
(UTC+00:00)

Transit 2A Rocket - All Passes

Search period start: 19 July 2019 00:00
Search period end: 29 July 2019 00:00
Orbit: 588 x 915 km, 66.7° (Epoch: 17 July)

Date Brightness Start Highest point End Pass type
(mag) Time Alt. Az. Time Alt. Az. Time Alt. Az.
19 Jul - 03:21:12 10° SSW 03:27:01 52° ESE 03:32:31 10° NE visible
19 Jul - 05:04:19 10° WSW 05:09:50 38° NW 05:15:02 10° NNE daylight
19 Jul - 06:50:54 10° NW 06:53:59 15° NNW 06:56:57 10° NNE daylight
19 Jul - 08:37:31 10° N 08:39:01 11° N 08:40:29 10° NNE daylight
19 Jul - 10:19:45 10° NNW 10:23:43 22° NNE 10:27:26 10° E daylight
19 Jul - 12:02:01 10° NW 12:07:06 90° E 12:11:40 10° SE daylight
19 Jul - 13:46:34 10° WNW 13:48:44 13° WSW 13:50:51 10° SW daylight
20 Jul - 02:39:21 10° S 02:44:39 33° ESE 02:49:43 10° NE visible
20 Jul - 04:21:16 10° SW 04:27:07 55° NW 04:32:37 10° NNE daylight
20 Jul - 06:07:03 10° WNW 06:10:54 18° NNW 06:14:36 10° NNE daylight
20 Jul - 07:54:31 10° NNW 07:55:47 11° N 07:57:04 10° NNE daylight
20 Jul - 09:37:24 10° NNW 09:40:43 17° NNE 09:43:51 10° ENE daylight
20 Jul - 11:19:30 10° NNW 11:24:31 56° NE 11:29:03 10° SE daylight
20 Jul - 13:02:52 10° WNW 13:06:38 23° WSW 13:10:10 10° SSW daylight
21 Jul - 01:58:01 10° SSE 02:02:23 21° ESE 02:06:36 10° ENE visible
21 Jul - 03:38:30 10° SW 03:44:30 80° NW 03:50:09 10° NE visible
21 Jul - 05:23:21 10° W 05:27:55 23° NNW 05:32:16 10° NNE daylight
21 Jul - 07:10:52 10° NNW 07:12:35 11° N 07:14:16 10° N daylight
21 Jul - 08:55:03 10° NNW 08:57:37 13° NNE 09:00:05 10° NE daylight
21 Jul - 10:37:04 10° NNW 10:41:48 37° NE 10:46:08 10° ESE daylight
21 Jul - 12:19:51 10° NW 12:24:24 38° WSW 12:28:35 10° S daylight
22 Jul - 01:17:40 10° SE 01:20:13 13° ESE 01:22:44 10° ENE visible
22 Jul - 02:56:01 10° SSW 03:01:59 69° ESE 03:07:35 10° NE visible
22 Jul - 04:39:52 10° W 04:45:02 31° NW 04:49:54 10° NNE daylight
22 Jul - 06:26:55 10° NW 06:29:24 13° NNW 06:31:47 10° N daylight
22 Jul - 08:12:40 10° N 08:14:28 12° N 08:16:13 10° NNE daylight
22 Jul - 09:54:41 10° NNW 09:58:59 26° NE 10:02:57 10° E daylight
22 Jul - 11:37:06 10° NW 11:42:03 65° WSW 11:46:31 10° SSE daylight
23 Jul - 02:13:54 10° S 02:19:34 44° ESE 02:24:55 10° NE visible
23 Jul - 03:56:39 10° WSW 04:02:15 43° NW 04:07:32 10° NNE daylight
23 Jul - 05:42:59 10° WNW 05:46:16 15° NNW 05:49:26 10° NNE daylight
23 Jul - 07:30:03 10° N 07:31:16 11° N 07:32:27 10° NNE daylight
23 Jul - 09:12:20 10° NNW 09:16:02 19° NNE 09:19:31 10° ENE daylight
23 Jul - 10:54:31 10° NNW 10:59:33 77° NE 11:04:06 10° SE daylight
23 Jul - 12:38:32 10° WNW 12:41:22 16° WSW 12:44:04 10° SW daylight
24 Jul - 01:32:13 10° SSE 01:37:13 29° ESE 01:42:01 10° NE visible
24 Jul - 03:13:40 10° SW 03:19:35 62° NW 03:25:06 10° NNE visible
24 Jul - 04:59:10 10° WNW 05:03:14 19° NNW 05:07:06 10° NNE daylight
24 Jul - 06:46:49 10° NNW 06:48:02 11° N 06:49:15 10° N daylight
24 Jul - 08:30:01 10° NNW 08:33:00 15° NNE 08:35:51 10° ENE daylight
24 Jul - 10:12:02 10° NNW 10:16:56 48° NE 10:21:22 10° ESE daylight
24 Jul - 11:55:09 10° NW 11:59:12 27° WSW 12:02:58 10° SSW daylight
25 Jul - 00:51:07 10° SSE 00:55:00 18° ESE 00:58:44 10° ENE visible
25 Jul - 02:31:00 10° SSW 02:37:00 89° SE 02:42:36 10° NE visible
25 Jul - 04:15:32 10° W 04:20:17 25° NW 04:24:46 10° NNE daylight
25 Jul - 06:02:59 10° NNW 06:04:50 12° NNW 06:06:38 10° N daylight
25 Jul - 07:47:40 10° N 07:49:53 13° NNE 07:52:02 10° NE daylight
25 Jul - 09:29:37 10° NNW 09:34:11 32° NE 09:38:22 10° ESE daylight
25 Jul - 11:12:15 10° NW 11:16:56 45° WSW 11:21:13 10° S daylight
26 Jul - 00:11:45 10° ESE 00:12:52 11° ESE 00:13:58 10° E visible
26 Jul - 01:48:39 10° SSW 01:54:31 59° ESE 02:00:01 10° NE visible
26 Jul - 03:32:08 10° WSW 03:37:26 34° NW 03:42:25 10° NNE visible
26 Jul - 05:18:59 10° NW 05:21:40 13° NNW 05:24:15 10° N daylight
26 Jul - 07:05:16 10° N 07:06:43 11° N 07:08:07 10° NNE daylight
26 Jul - 08:47:16 10° NNW 08:51:19 23° NE 08:55:05 10° E daylight
26 Jul - 10:29:34 10° NW 10:34:32 78° WSW 10:39:02 10° SSE daylight
26 Jul - 12:15:14 10° W 12:16:03 10° WSW 12:16:50 10° WSW daylight
27 Jul - 01:06:40 10° S 01:12:07 38° ESE 01:17:17 10° NE visible
27 Jul - 02:48:59 10° WSW 02:54:41 48° NW 03:00:01 10° NNE visible
27 Jul - 04:35:04 10° WNW 04:38:34 16° NNW 04:41:56 10° NNE daylight
27 Jul - 06:22:34 10° N 06:23:29 10° N 06:24:25 10° N daylight
27 Jul - 08:04:55 10° NNW 08:08:20 18° NNE 08:11:34 10° ENE daylight
27 Jul - 09:47:01 10° NNW 09:51:59 65° NE 09:56:30 10° SE daylight
27 Jul - 11:30:39 10° WNW 11:33:57 19° WSW 11:37:05 10° SSW daylight
28 Jul - 00:25:08 10° SSE 00:29:49 24° ESE 00:34:17 10° ENE visible
28 Jul - 02:06:06 10° SW 02:12:03 71° NW 02:17:35 10° NNE visible
28 Jul - 03:51:17 10° W 03:55:34 21° NNW 03:59:36 10° NNE visible
28 Jul - 05:39:01 10° NNW 05:40:17 11° N 05:41:30 10° N daylight
28 Jul - 07:22:36 10° NNW 07:25:16 14° NNE 07:27:50 10° NE daylight
28 Jul - 09:04:34 10° NNW 09:09:19 41° NE 09:13:40 10° ESE daylight
28 Jul - 10:47:29 10° NW 10:51:45 32° WSW 10:55:43 10° S daylight
28 Jul - 23:44:22 10° SE 23:47:36 15° ESE 23:50:45 10° ENE visible
